Welcome to the New NWS' Forecast!
Most changes are behind the scenes, but click here for differences you might notice.

Regional Weather Roundup (RWR)

Issued by New Orleans/Baton Rouge (LIX)

                            
000
ASUS44 KLIX 161415
RWRLIX
NEW ORLEANS REGIONAL WEATHER ROUNDUP
NATIONAL WEATHER SERVICE NEW ORLEANS LA
800 AM CST FRI NOV 16 2018

NOTE: "FAIR" INDICATES FEW OR NO CLOUDS BELOW 12,000 FEET WITH NO
      SIGNIFICANT WEATHER AND/OR OBSTRUCTIONS TO VISIBILITY.
      SKY/WX - SKY CONDITION AND SIGNIFICANT WEATHER.
      TMP - AIR TEMPERATURE.     DP    - DEWPOINT TEMPERATURE.
      RH  - RELATIVE HUMIDITY.   PRES  - PRESSURE.
      HI  - HEAT INDEX.          WCI   - WIND CHILL INDEX.

*  THESE STATIONS ARE NOT NWS OR FAA STATIONS AND ARE NOT UNDER
   NWS QUALITY CONTROL. 

LAZ038-040-048-061>063-065>067-069-161500-
SOUTHEAST LOUISIANA
  
CITY           SKY/WX    TMP DP  RH WIND       PRES   REMARKS
N.O. INTL ARPT FAIR      48  45  89 CALM      30.29R                  
N.O. LAKEFRONT FAIR      52  38  58 NE5       30.30R                  
N.O. DOWNTOWN* FAIR      46  40  79 S3        30.30R                  
RESERVE*       FAIR      44  41  91 CALM      30.30R                  
SLIDELL        FAIR      41  37  86 CALM      30.29R                  
BATON ROUGE    FAIR      41  38  89 CALM      30.28R                  
BOOTHVILLE     NOT AVBL                                               
BOGALUSA*      FAIR      37  35  90 CALM      30.29R                  
GALLIANO*      FAIR      47  42  84 CALM      30.30R                  
NEW ROADS*     FAIR      43  41  93 CALM      30.29R                  
GONZALES*      FAIR      41  38  90 CALM      30.28R                  
HAMMOND*       FAIR      37  36  93 CALM      30.28S                  
HOUMA*         SUNNY     45  41  87 CALM      30.30R                  
PORT FOURCHON* SUNNY     50  41  71 NE8       30.30R                  

$$

MSZ070-080>082-161500-
SOUTHERN MISSISSIPPI
  
CITY           SKY/WX    TMP DP  RH WIND       PRES   REMARKS
MCCOMB         FAIR      40  36  86 CALM      30.27R                  
GULFPORT       FAIR      43  38  82 CALM      30.29R                  
BILOXI         FAIR      42  34  74 NE3       30.28R                  
PASCAGOULA     FAIR      42  37  82 CALM      30.29R                  
STENNIS ARPT*  SUNNY    N/A N/A N/A CALM      30.31R                  

$$

COASTAL OBSERVATIONS
LAKE AND NEARSHORE STATIONS
  
STATION/POSITION TIME  SKY/WX   TEMP    WIND        PRES    WAVE
                                AIR SEA DIR/SP/G            HT/PER
                 (UTC)          (F)     (DEG/KT/KT) (MB)    (FT/S)
WAVELAND YACHT   1348            44 50   10/  4/  4 1025.3
GRAND ISLE       1348            51 66   40/  6/  8 1025.7
SOUTHWEST PASS   1348                    40/  9/ 11   N/A
NEW CANAL        1348                    10/  4/  4 1025.4
SHELL BEACH      1348            50 54   10/  4/  5 1025.7

OFFSHORE STATIONS
  
STATION/POSITION TIME  SKY/WX   TEMP    WIND        PRES    WAVE
                                AIR SEA DIR/SP/G            HT/PER
                 (UTC)          (F)     (DEG/KT/KT) (MB)    (FT/S)
64 S DAUPHIN ISL 1350               77  350/ 10/ 14 1025.1    2/ 4

$$